When you browse on this site, cookies collect data to enhance your experience and personalize the content and advertising you see.
Visit our Privacy Policy to learn more. By continuing to use the site, you agree to this use of cookies and data.
  • In Hungary
  • List of Countries
  • For 7 days
  • Water Temperature
  • Satellite Maps
  • Weather Map
  • News
  • Weather Widgets
  • user-avatar
    Login

    Hourly Weather Riva del Garda

    Today, 19 June, Wednesday

    Time Temperature Precipitation Wind Pressure Humidity
    00:00 +18°C° 0.2 mm 1 mps 700 mmHg 90%
    01:00 +18°C° 0.2 mm 1 mps 700 mmHg 90%
    02:00 +18°C° 0.2 mm 1 mps 700 mmHg 90%
    03:00 +18°C° 0.2 mm 1 mps 699 mmHg 90%
    04:00 +16°C° 0.2 mm 1 mps 699 mmHg 90%
    05:00 +18°C° 0.3 mm 1 mps 699 mmHg 90%
    06:00 +19°C° 0.3 mm 1 mps 699 mmHg 89%
    07:00 +20°C° 0.3 mm 1 mps 700 mmHg 88%
    08:00 +21°C° 1.2 mm 1 mps 700 mmHg 85%
    09:00 +22°C° 1.2 mm 1 mps 700 mmHg 82%
    10:00 +23°C° 1.2 mm 2 mps 700 mmHg 79%
    11:00 +24°C° 1 mm 2 mps 700 mmHg 76%
    12:00 +24°C° 1 mm 2 mps 700 mmHg 72%
    13:00 +25°C° 1 mm 2 mps 699 mmHg 69%
    14:00 +25°C° 0.4 mm 2 mps 699 mmHg 67%
    15:00 +25°C° 0.4 mm 2 mps 699 mmHg 65%
    16:00 +26°C° 0.4 mm 2 mps 699 mmHg 62%
    17:00 +25°C° 0.4 mm 1 mps 699 mmHg 68%
    18:00 +24°C° 0.4 mm 1 mps 699 mmHg 74%
    19:00 +22°C° 0.4 mm 1 mps 699 mmHg 80%
    20:00 +21°C° 0.4 mm 1 mps 699 mmHg 81%
    21:00 +20°C° 0.4 mm 1 mps 699 mmHg 83%
    22:00 +19°C° 0.4 mm 1 mps 699 mmHg 84%
    23:00 +18°C° 0 mm 1 mps 699 mmHg 85%

    Tomorrow, 20 June, Thursday

    Time Temperature Precipitation Wind Pressure Humidity
    00:00 +18°C° 0 mm 1 mps 699 mmHg 86%
    01:00 +18°C° 0 mm 1 mps 699 mmHg 86%
    02:00 +16°C° 0 mm 1 mps 699 mmHg 87%
    03:00 +16°C° 0 mm 1 mps 699 mmHg 87%
    04:00 +16°C° 0 mm 1 mps 698 mmHg 88%
    05:00 +18°C° 0 mm 1 mps 699 mmHg 85%
    06:00 +20°C° 0 mm 1 mps 699 mmHg 82%
    07:00 +21°C° 0 mm 1 mps 699 mmHg 79%
    08:00 +22°C° 0.1 mm 1 mps 699 mmHg 75%
    09:00 +23°C° 0.1 mm 1 mps 699 mmHg 71%
    10:00 +25°C° 0.1 mm 2 mps 700 mmHg 68%
    11:00 +25°C° 0.4 mm 2 mps 700 mmHg 66%
    12:00 +25°C° 0.4 mm 2 mps 700 mmHg 65%
    13:00 +25°C° 0.4 mm 2 mps 699 mmHg 64%
    14:00 +25°C° 0.3 mm 2 mps 699 mmHg 62%
    15:00 +25°C° 0.3 mm 2 mps 699 mmHg 60%
    16:00 +25°C° 0.3 mm 2 mps 699 mmHg 58%
    17:00 +24°C° 0.1 mm 1 mps 699 mmHg 65%
    18:00 +23°C° 0.1 mm 1 mps 699 mmHg 72%
    19:00 +22°C° 0.1 mm 1 mps 699 mmHg 79%
    20:00 +21°C° 0.1 mm 1 mps 699 mmHg 81%
    21:00 +19°C° 0.1 mm 1 mps 699 mmHg 82%
    22:00 +18°C° 0.1 mm 1 mps 699 mmHg 84%
    23:00 +18°C° 0 mm 1 mps 699 mmHg 84%

    Day after tomorrow, 21 June, Friday

    Time Temperature Precipitation Wind Pressure Humidity
    00:00 +16°C° 0 mm 1 mps 699 mmHg 85%
    01:00 +16°C° 0 mm 1 mps 699 mmHg 85%
    02:00 +16°C° 0 mm 1 mps 699 mmHg 86%
    03:00 +16°C° 0 mm 1 mps 699 mmHg 86%
    04:00 +16°C° 0 mm 2 mps 699 mmHg 87%
    05:00 +18°C° 0 mm 1 mps 699 mmHg 84%
    06:00 +19°C° 0 mm 1 mps 700 mmHg 82%
    07:00 +20°C° 0 mm 1 mps 700 mmHg 79%
    08:00 +22°C° 0.4 mm 1 mps 700 mmHg 75%
    09:00 +23°C° 0.4 mm 1 mps 701 mmHg 72%
    10:00 +25°C° 0.4 mm 1 mps 701 mmHg 68%
    11:00 +25°C° 0.8 mm 1 mps 701 mmHg 70%
    12:00 +24°C° 0.8 mm 1 mps 700 mmHg 71%
    13:00 +24°C° 0.8 mm 2 mps 700 mmHg 73%
    14:00 +24°C° 0.8 mm 2 mps 700 mmHg 72%
    15:00 +24°C° 0.8 mm 2 mps 700 mmHg 72%
    16:00 +24°C° 0.8 mm 2 mps 699 mmHg 72%
    17:00 +23°C° 0.5 mm 1 mps 699 mmHg 77%
    18:00 +23°C° 0.5 mm 1 mps 699 mmHg 82%
    19:00 +22°C° 0.5 mm 1 mps 699 mmHg 87%
    20:00 +21°C° 0.6 mm 1 mps 699 mmHg 88%
    21:00 +20°C° 0.6 mm 1 mps 699 mmHg 89%
    22:00 +18°C° 0.6 mm 1 mps 700 mmHg 90%
    23:00 +18°C° 0.6 mm 1 mps 700 mmHg 90%

    22 June, Saturday

    Time Temperature Precipitation Wind Pressure Humidity
    00:00 +18°C° 0.6 mm 1 mps 700 mmHg 91%
    01:00 +18°C° 0.6 mm 1 mps 700 mmHg 91%
    02:00 +18°C° 0.2 mm 1 mps 699 mmHg 91%
    03:00 +16°C° 0.2 mm 1 mps 699 mmHg 91%
    04:00 +16°C° 0.2 mm 1 mps 699 mmHg 91%
    05:00 +18°C° 0.1 mm 1 mps 699 mmHg 90%
    06:00 +19°C° 0.1 mm 1 mps 700 mmHg 88%
    07:00 +20°C° 0.1 mm 1 mps 700 mmHg 87%
    08:00 +21°C° 0.8 mm 1 mps 700 mmHg 84%
    09:00 +22°C° 0.8 mm 1 mps 700 mmHg 81%
    10:00 +23°C° 0.8 mm 2 mps 700 mmHg 77%
    11:00 +23°C° 0.9 mm 2 mps 700 mmHg 77%
    12:00 +24°C° 0.9 mm 2 mps 700 mmHg 77%
    13:00 +24°C° 0.9 mm 2 mps 700 mmHg 77%
    14:00 +24°C° 0.6 mm 2 mps 699 mmHg 74%
    15:00 +24°C° 0.6 mm 2 mps 699 mmHg 72%
    16:00 +25°C° 0.6 mm 2 mps 699 mmHg 69%
    17:00 +24°C° 0.1 mm 1 mps 699 mmHg 74%
    18:00 +23°C° 0.1 mm 1 mps 699 mmHg 78%
    19:00 +22°C° 0.1 mm 1 mps 699 mmHg 83%
    20:00 +21°C° 0.1 mm 1 mps 699 mmHg 86%
    21:00 +20°C° 0.1 mm 1 mps 700 mmHg 88%
    22:00 +18°C° 0.1 mm 1 mps 700 mmHg 91%
    23:00 +18°C° 0 mm 1 mps 700 mmHg 91%

    23 June, Sunday

    Time Temperature Precipitation Wind Pressure Humidity
    00:00 +18°C° 0 mm 1 mps 700 mmHg 91%
    01:00 +16°C° 0 mm 1 mps 700 mmHg 90%
    02:00 +16°C° 0 mm 2 mps 700 mmHg 90%
    03:00 +15°C° 0 mm 2 mps 700 mmHg 90%
    04:00 +15°C° 0 mm 2 mps 700 mmHg 89%
    05:00 +16°C° 0 mm 2 mps 700 mmHg 87%
    06:00 +19°C° 0 mm 1 mps 701 mmHg 84%
    07:00 +20°C° 0 mm 1 mps 701 mmHg 81%
    08:00 +22°C° 0 mm 1 mps 702 mmHg 73%
    09:00 +24°C° 0 mm 1 mps 702 mmHg 65%
    10:00 +26°C° 0 mm 1 mps 702 mmHg 57%
    11:00 +26°C° 0 mm 1 mps 702 mmHg 57%
    12:00 +27°C° 0 mm 2 mps 702 mmHg 56%
    13:00 +27°C° 0 mm 2 mps 702 mmHg 55%
    14:00 +27°C° 0 mm 2 mps 702 mmHg 56%
    15:00 +27°C° 0 mm 2 mps 702 mmHg 58%
    16:00 +27°C° 0 mm 2 mps 702 mmHg 59%
    17:00 +26°C° 0.1 mm 2 mps 702 mmHg 67%
    18:00 +25°C° 0.1 mm 1 mps 702 mmHg 75%
    19:00 +24°C° 0.1 mm 1 mps 702 mmHg 83%
    20:00 +22°C° 0 mm 1 mps 702 mmHg 86%
    21:00 +21°C° 0 mm 1 mps 703 mmHg 89%
    22:00 +20°C° 0 mm 1 mps 703 mmHg 92%
    23:00 +20°C° 0 mm 1 mps 703 mmHg 91%

    24 June, Monday

    Time Temperature Precipitation Wind Pressure Humidity
    00:00 +20°C° 0 mm 1 mps 703 mmHg 91%
    01:00 +19°C° 0 mm 1 mps 704 mmHg 91%
    02:00 +19°C° 0 mm 1 mps 704 mmHg 91%
    03:00 +19°C° 0 mm 1 mps 703 mmHg 91%
    04:00 +18°C° 0 mm 1 mps 703 mmHg 92%
    05:00 +20°C° 0 mm 1 mps 704 mmHg 88%
    06:00 +21°C° 0 mm 1 mps 704 mmHg 85%
    07:00 +23°C° 0 mm 1 mps 705 mmHg 81%
    08:00 +24°C° 0 mm 1 mps 705 mmHg 75%
    09:00 +26°C° 0 mm 1 mps 705 mmHg 68%
    10:00 +28°C° 0 mm 1 mps 706 mmHg 62%
    11:00 +28°C° 0 mm 1 mps 706 mmHg 60%
    12:00 +29°C° 0 mm 2 mps 705 mmHg 58%
    13:00 +30°C° 0 mm 2 mps 705 mmHg 56%
    14:00 +30°C° 0.1 mm 2 mps 705 mmHg 59%
    15:00 +29°C° 0.1 mm 2 mps 705 mmHg 61%
    16:00 +29°C° 0.1 mm 2 mps 705 mmHg 64%
    17:00 +28°C° 0 mm 2 mps 705 mmHg 70%
    18:00 +27°C° 0 mm 1 mps 705 mmHg 77%
    19:00 +26°C° 0 mm 1 mps 705 mmHg 83%
    20:00 +25°C° 0 mm 1 mps 706 mmHg 87%
    21:00 +23°C° 0 mm 1 mps 706 mmHg 90%
    22:00 +20°C° 0 mm 0 mps 706 mmHg 93%
    23:00 +22°C° 0 mm 1 mps 706 mmHg 93%
    Show more